�������l�o���
Date,Time,MP-1(��Sv/h),MP-2(��Sv/h),MP-3(��Sv/h),MP-4(��Sv/h),MP-5(��Sv/h),MP-6(��Sv/h),MP-7(��Sv/h),MP-8(��Sv/h),����,����(m/s),���J
2018/02/15,00:00,0.893,1.488,0.932,1.739,1.203,0.493,0.873,0.838,�쐼,13.3,��
2018/02/15,00:10,0.894,1.490,0.930,1.739,1.203,0.492,0.873,0.838,�쐼,11.8,��
2018/02/15,00:20,0.894,1.489,0.931,1.741,1.200,0.494,0.872,0.839,�쐼,10.2,��
2018/02/15,00:30,0.894,1.489,0.932,1.739,1.203,0.494,0.872,0.839,�쐼,9.0,��
2018/02/15,00:40,0.894,1.488,0.932,1.740,1.204,0.492,0.871,0.840,�쐼,9.2,��
2018/02/15,00:50,0.894,1.489,0.930,1.739,1.203,0.495,0.873,0.840,�쐼,11.1,��
2018/02/15,01:00,0.896,1.487,0.930,1.742,1.204,0.492,0.871,0.840,�쐼,10.5,��
2018/02/15,01:10,0.896,1.490,0.930,1.739,1.204,0.492,0.871,0.840,�쐼,11.3,��
2018/02/15,01:20,0.896,1.489,0.932,1.740,1.204,0.494,0.870,0.840,�쐼,11.4,��
2018/02/15,01:30,0.893,1.489,0.932,1.740,1.204,0.494,0.872,0.839,�쐼,9.1,��
2018/02/15,01:40,0.895,1.489,0.929,1.740,1.204,0.493,0.873,0.839,�쐼,8.6,��
2018/02/15,01:50,0.896,1.489,0.931,1.738,1.204,0.492,0.871,0.839,���쐼,7.3,��
2018/02/15,02:00,0.893,1.488,0.931,1.741,1.202,0.494,0.872,0.839,��,5.0,��
2018/02/15,02:10,0.894,1.489,0.930,1.739,1.204,0.493,0.870,0.840,��,6.7,��
2018/02/15,02:20,0.893,1.488,0.931,1.739,1.202,0.492,0.871,0.839,��,9.9,�L
2018/02/15,02:30,0.896,1.489,0.930,1.741,1.203,0.492,0.871,0.839,��,8.7,�L
2018/02/15,02:40,0.894,1.491,0.931,1.740,1.203,0.493,0.872,0.839,��,10.7,�L
2018/02/15,02:50,0.893,1.490,0.929,1.736,1.204,0.493,0.872,0.838,��,11.1,�L
2018/02/15,03:00,0.893,1.489,0.931,1.740,1.202,0.492,0.871,0.838,��,10.0,��
2018/02/15,03:10,0.892,1.488,0.932,1.741,1.203,0.492,0.874,0.839,��,7.6,��
2018/02/15,03:20,0.891,1.487,0.929,1.739,1.201,0.491,0.871,0.840,�k��,8.4,�L
2018/02/15,03:30,0.893,1.489,0.931,1.741,1.204,0.491,0.872,0.839,�k��,9.2,�L
2018/02/15,03:40,0.891,1.487,0.930,1.738,1.203,0.492,0.871,0.838,�k��,8.3,�L
2018/02/15,03:50,0.892,1.490,0.929,1.741,1.203,0.491,0.871,0.838,�k��,7.1,�L
2018/02/15,04:00,0.890,1.488,0.929,1.738,1.201,0.491,0.871,0.836,�k��,7.0,�L
2018/02/15,04:10,0.891,1.489,0.929,1.742,1.205,0.492,0.871,0.837,�k��,7.1,�L
2018/02/15,04:20,0.892,1.490,0.928,1.741,1.201,0.491,0.871,0.839,�k��,7.6,�L
2018/02/15,04:30,0.890,1.488,0.930,1.739,1.200,0.490,0.870,0.837,�k��,6.2,�L
2018/02/15,04:40,0.891,1.487,0.929,1.739,1.200,0.490,0.870,0.837,�k��,7.0,�L
2018/02/15,04:50,0.891,1.488,0.929,1.740,1.199,0.488,0.870,0.836,�k��,6.8,�L
2018/02/15,05:00,0.890,1.486,0.928,1.739,1.200,0.490,0.872,0.838,�k��,6.3,��
2018/02/15,05:10,0.890,1.490,0.929,1.738,1.202,0.489,0.870,0.837,�k��,5.6,��
2018/02/15,05:20,0.889,1.488,0.930,1.741,1.202,0.489,0.869,0.836,�k��,5.0,��
2018/02/15,05:30,0.890,1.486,0.925,1.737,1.201,0.490,0.870,0.836,�k��,5.3,��
2018/02/15,05:40,0.890,1.488,0.928,1.737,1.200,0.488,0.868,0.838,�k�k��,6.3,��
2018/02/15,05:50,0.892,1.486,0.928,1.737,1.200,0.488,0.869,0.836,�k�k��,4.0,��
2018/02/15,06:00,0.889,1.487,0.928,1.737,1.199,0.488,0.868,0.837,�k�k��,2.2,��
2018/02/15,06:10,0.888,1.485,0.926,1.736,1.199,0.489,0.868,0.837,�k��,2.2,��
2018/02/15,06:20,0.887,1.483,0.926,1.738,1.203,0.489,0.869,0.836,�k�k��,4.1,��
2018/02/15,06:30,0.890,1.484,0.926,1.739,1.200,0.487,0.869,0.837,�k�k��,5.5,��
2018/02/15,06:40,0.890,1.487,0.924,1.738,1.202,0.487,0.868,0.837,�k�k��,4.9,��
2018/02/15,06:50,0.888,1.487,0.926,1.736,1.200,0.487,0.870,0.838,�k�k��,2.9,��
2018/02/15,07:00,0.887,1.486,0.926,1.737,1.200,0.490,0.867,0.835,�k,4.0,��
2018/02/15,07:10,0.889,1.486,0.925,1.736,1.197,0.486,0.869,0.836,�k�k��,3.7,��
2018/02/15,07:20,0.890,1.487,0.924,1.737,1.200,0.488,0.868,0.837,�k,3.8,��
2018/02/15,07:30,0.890,1.485,0.927,1.734,1.200,0.488,0.869,0.835,�k�k��,4.1,��
2018/02/15,07:40,0.889,1.483,0.926,1.737,1.199,0.488,0.868,0.837,�k,3.4,��
2018/02/15,07:50,0.890,1.486,0.924,1.737,1.199,0.487,0.868,0.834,�k�k��,3.9,��
2018/02/15,08:00,0.889,1.485,0.926,1.739,1.203,0.487,0.869,0.836,�k��,2.3,��
2018/02/15,08:10,0.891,1.483,0.926,1.737,1.202,0.488,0.866,0.837,���k��,2.3,��
2018/02/15,08:20,0.889,1.486,0.926,1.738,1.199,0.488,0.868,0.838,��,2.2,��
2018/02/15,08:30,0.889,1.481,0.925,1.739,1.201,0.489,0.869,0.838,��,1.8,��
2018/02/15,08:40,0.892,1.487,0.922,1.738,1.199,0.487,0.869,0.838,��,2.0,��
2018/02/15,08:50,0.890,1.485,0.927,1.738,1.198,0.488,0.868,0.836,��,2.0,��
2018/02/15,09:00,0.890,1.485,0.926,1.737,1.202,0.488,0.871,0.836,-,CALM,��
2018/02/15,09:10,0.890,1.486,0.925,1.736,1.199,0.487,0.871,0.835,���k��,1.2,��
2018/02/15,09:20,0.891,1.488,0.926,1.738,1.202,0.489,0.870,0.834,�k��,1.7,��
2018/02/15,09:30,0.890,1.485,0.927,1.739,1.203,0.489,0.870,0.838,��,3.4,��
2018/02/15,09:40,0.893,1.487,0.927,1.740,1.201,0.488,0.866,0.835,��,7.9,��
2018/02/15,09:50,0.891,1.484,0.924,1.740,1.202,0.489,0.869,0.836,���k��,8.2,��
2018/02/15,10:00,0.891,1.485,0.927,1.740,1.202,0.488,0.867,0.835,���k��,5.8,��
2018/02/15,10:10,0.891,1.486,0.924,1.739,1.189,0.490,0.867,0.839,���k��,10.0,��
2018/02/15,10:20,0.892,1.488,0.923,1.739,1.201,0.489,0.867,0.837,��,8.2,��
2018/02/15,10:30,0.893,1.489,0.924,1.737,1.202,0.488,0.867,0.837,���k��,6.5,��
2018/02/15,10:40,0.891,1.486,0.922,1.740,1.205,0.489,0.867,0.837,���k��,10.2,��
2018/02/15,10:50,0.892,1.488,0.923,1.740,1.204,0.490,0.864,0.838,��,8.1,��
2018/02/15,11:00,0.894,-,0.925,1.739,1.201,0.489,0.865,0.838,���k��,9.0,��
2018/02/15,11:10,0.893,-,0.925,1.742,1.203,0.487,0.866,0.839,���k��,8.6,��
2018/02/15,11:20,0.892,-,0.925,1.741,1.204,0.489,0.866,0.838,���k��,8.5,��
2018/02/15,11:30,0.894,-,0.925,1.741,1.204,0.489,0.866,0.838,���k��,8.9,��
2018/02/15,11:40,0.892,-,0.925,1.742,1.204,0.490,0.867,0.838,��,7.2,��
2018/02/15,11:50,0.892,-,0.925,1.738,1.203,0.489,0.867,0.837,���k��,7.5,��
2018/02/15,12:00,0.893,-,0.926,1.739,1.206,0.490,0.870,0.839,��,7.7,��
2018/02/15,12:10,0.895,-,0.926,1.744,1.206,0.489,0.868,0.839,��,9.5,��
2018/02/15,12:20,0.894,-,0.927,1.744,1.205,0.488,0.867,0.838,��,8.5,��
2018/02/15,12:30,0.894,-,0.929,1.746,1.203,0.491,0.867,0.839,��,8.5,��
2018/02/15,12:40,0.893,-,0.928,1.745,1.203,0.491,0.867,0.840,��,8.6,��
2018/02/15,12:50,0.897,-,0.930,1.744,1.201,0.490,0.869,0.840,��,8.5,��
2018/02/15,13:00,0.895,-,0.932,1.746,1.202,0.490,0.869,0.839,��,9.5,��
2018/02/15,13:10,0.894,-,0.930,1.745,1.200,0.490,0.869,0.839,��,7.5,��
2018/02/15,13:20,0.894,-,0.932,1.742,1.203,0.488,0.867,0.838,���k��,9.9,��
2018/02/15,13:30,0.893,-,0.929,1.743,1.204,0.491,0.868,0.838,���k��,11.7,��
2018/02/15,13:40,0.895,-,0.932,1.744,1.201,0.490,0.869,0.839,���k��,12.4,��
2018/02/15,13:50,0.895,-,0.929,1.744,1.204,0.492,0.867,0.837,���k��,10.3,��
2018/02/15,14:00,0.896,-,0.929,1.744,1.205,0.490,0.868,0.835,���k��,10.8,��
2018/02/15,14:10,0.895,-,0.931,1.742,1.204,0.490,0.869,0.835,���k��,12.7,��
2018/02/15,14:20,0.892,-,0.931,1.742,1.202,0.489,0.869,0.836,��,10.5,��
2018/02/15,14:30,0.893,-,0.932,1.744,1.203,0.490,0.869,0.836,���k��,10.3,��
2018/02/15,14:40,0.893,-,0.929,1.743,1.205,0.491,0.867,0.837,���k��,14.1,��
2018/02/15,14:50,0.893,-,0.930,1.742,1.204,0.488,0.869,0.835,���k��,9.8,��
2018/02/15,15:00,0.894,1.489,0.930,1.746,1.206,0.489,0.867,0.835,���k��,8.4,��
2018/02/15,15:10,0.895,1.482,0.931,1.747,1.202,0.489,0.871,0.837,��,7.2,��
2018/02/15,15:20,0.893,1.487,0.930,1.741,1.203,0.489,0.870,0.838,��,7.8,��
2018/02/15,15:30,0.893,1.488,0.933,1.744,1.203,0.490,0.869,0.839,��,10.7,��
2018/02/15,15:40,0.894,1.493,0.930,1.742,1.203,0.490,0.871,0.837,���k��,11.7,��
2018/02/15,15:50,0.893,1.490,0.930,1.746,1.201,0.490,0.868,0.838,��,9.0,��
2018/02/15,16:00,0.892,1.494,0.927,1.749,1.204,0.492,0.869,0.838,���k��,9.8,��
2018/02/15,16:10,0.893,1.493,0.929,1.744,1.206,0.490,0.870,0.839,��,9.0,��
2018/02/15,16:20,0.894,1.493,0.930,1.743,1.204,0.491,0.870,0.838,���k��,11.6,��
2018/02/15,16:30,0.894,1.494,0.929,1.744,1.203,0.491,0.869,0.840,���k��,13.8,��
2018/02/15,16:40,0.892,1.493,0.929,1.745,1.205,0.491,0.870,0.836,���k��,16.3,��
2018/02/15,16:50,0.893,1.492,0.929,1.746,1.205,0.490,0.872,0.838,���k��,17.2,��
2018/02/15,17:00,0.893,1.490,0.928,1.744,1.207,0.489,0.870,0.838,���k��,17.1,��
2018/02/15,17:10,0.893,1.494,0.926,1.740,1.206,0.489,0.869,0.839,���k��,15.8,��
2018/02/15,17:20,0.893,1.491,0.927,1.742,1.203,0.488,0.869,0.840,���k��,13.5,��
2018/02/15,17:30,0.890,1.491,0.926,1.744,1.206,0.489,0.868,0.836,���k��,16.0,��
2018/02/15,17:40,0.891,1.493,0.927,1.742,1.205,0.487,0.866,0.839,���k��,15.5,��
2018/02/15,17:50,0.892,1.491,0.926,1.744,1.205,0.487,0.865,0.839,��,14.7,��
2018/02/15,18:00,0.893,1.489,0.928,1.741,1.203,0.487,0.865,0.838,���k��,14.2,��
2018/02/15,18:10,0.891,1.492,0.926,1.742,1.204,0.488,0.866,0.837,��,13.1,��
2018/02/15,18:20,0.891,1.490,0.927,1.741,1.205,0.486,0.865,0.837,���k��,11.3,��
2018/02/15,18:30,0.890,1.492,0.927,1.741,1.205,0.487,0.866,0.838,���k��,13.0,��
2018/02/15,18:40,0.890,1.491,0.925,1.739,1.206,0.488,0.866,0.837,��,11.9,��
2018/02/15,18:50,0.890,1.491,0.927,1.741,1.204,0.487,0.867,0.837,���k��,11.0,��
2018/02/15,19:00,0.891,1.494,0.927,1.743,1.203,0.486,0.868,0.836,���k��,11.7,��
2018/02/15,19:10,0.890,1.491,0.927,1.743,1.204,0.487,0.870,0.837,���k��,11.3,��
2018/02/15,19:20,0.892,1.491,0.928,1.747,1.204,0.488,0.870,0.837,���k��,8.8,��
2018/02/15,19:30,0.890,1.489,0.928,1.742,1.205,0.487,0.869,0.839,�k��,7.9,��
2018/02/15,19:40,0.891,1.493,0.929,1.743,1.205,0.489,0.868,0.837,�k��,7.8,��
2018/02/15,19:50,0.890,1.492,0.928,1.739,1.201,0.486,0.866,0.837,�k��,8.8,��
2018/02/15,20:00,0.890,1.492,0.927,1.744,1.204,0.488,0.867,0.837,�k��,7.2,��
2018/02/15,20:10,0.890,1.491,0.927,1.741,1.200,0.488,0.867,0.836,�k��,6.0,��
2018/02/15,20:20,0.890,1.491,0.928,1.741,1.204,0.488,0.867,0.836,���k��,5.8,��
2018/02/15,20:30,0.888,1.488,0.926,1.741,1.201,0.488,0.867,0.836,���k��,5.5,��
2018/02/15,20:40,0.888,1.491,0.928,1.741,1.206,0.490,0.867,0.837,�k��,5.5,��
2018/02/15,20:50,0.889,1.487,0.927,1.741,1.203,0.487,0.866,0.836,�k��,5.5,��
2018/02/15,21:00,0.889,1.490,0.926,1.741,1.202,0.488,0.866,0.837,���k��,5.8,��
2018/02/15,21:10,0.891,1.489,0.927,1.738,1.202,0.487,0.868,0.836,�k��,6.2,��
2018/02/15,21:20,0.889,1.490,0.928,1.742,1.204,0.486,0.868,0.837,���k��,5.3,��
2018/02/15,21:30,0.888,1.490,0.926,1.740,1.202,0.488,0.867,0.836,���k��,4.6,��
2018/02/15,21:40,0.888,1.492,0.925,1.741,1.201,0.487,0.867,0.836,���k��,4.2,��
2018/02/15,21:50,0.889,1.486,0.926,1.742,1.203,0.485,0.868,0.836,�k��,4.0,��
2018/02/15,22:00,0.888,1.490,0.928,1.740,1.203,0.489,0.867,0.835,���k��,5.4,��
2018/02/15,22:10,0.887,1.490,0.926,1.739,1.202,0.489,0.867,0.836,���k��,4.8,��
2018/02/15,22:20,0.889,1.486,0.926,1.745,1.199,0.487,0.866,0.835,���k��,5.8,��
2018/02/15,22:30,0.891,1.491,0.928,1.742,1.203,0.487,0.867,0.837,�k��,6.4,��
2018/02/15,22:40,0.888,1.488,0.928,1.740,1.202,0.488,0.866,0.835,���k��,4.3,��
2018/02/15,22:50,0.887,1.489,0.926,1.743,1.203,0.488,0.866,0.836,�k��,4.6,��
2018/02/15,23:00,0.887,1.488,0.927,1.740,1.202,0.486,0.865,0.836,���k��,3.7,��
2018/02/15,23:10,0.888,1.490,0.925,1.743,1.201,0.488,0.866,0.837,���k��,4.4,��
2018/02/15,23:20,0.887,1.488,0.925,1.742,1.200,0.486,0.865,0.834,�k��,3.9,��
2018/02/15,23:30,0.888,1.488,0.925,1.741,1.201,0.488,0.864,0.835,���k��,2.9,��
2018/02/15,23:40,0.885,1.487,0.929,1.739,1.198,0.487,0.867,0.836,���k��,2.3,��
2018/02/15,23:50,0.887,1.487,0.926,1.739,1.199,0.488,0.862,0.835,�k�k��,1.7,��
